Location: Eaton
(41.3139°N, 82.0207°W)
Time: 16:55:25
(UTC+00:00)

CZ-4C R/B - Pass Details

Date: 17 June 2021
Orbit: 464 x 632 km, 98.0° (Epoch: 01 August)

Event Time Altitude Azimuth Distance (km) Brightness Sun altitude
Exits shadow 08:57:28 10° 200° (SSW) 1,633 5.2 -9.3°
Reaches altitude 10° 08:57:29 10° 200° (SSW) 1,632 5.2 -9.3°
Maximum altitude 09:00:33 29° 262° (W) 885 3.9 -8.9°
Drops below altitude 10° 09:03:37 10° 324° (NW) 1,624 5.8 -8.4°
Sets 09:05:51 0° 336° (NNW) 2,507 6.9 -8.1°
